OTB (44341 NORAD) Tracking and Keplerian Element Data

This shows tracking and keplerian element data for the satellite.

Feedback or suggestion? Click here.




ElementValue
Catalog44341
NameOTB
Epoch Orbit4115
Epoch Day94.04088434
Epoch Year2020
RAAN226.0314
Inclination23.9997
Eccentricity0.0012147
Argument of Perigee43.707
Mean Anonmoly316.4397
Mean Motion14.52860156
Decay Rate1.35E-06
L11 44341U 19036C 20094.04088434 .00000135 00000-0 -18065-4 0 9995
L22 44341 23.9997 226.0314 0012147 43.7070 316.4397 14.52860156 41153

Live tracking and technical data element details for OTB (NORAD 44341). OTB can be tracked NOW for your location showing map with azimuth and elevation plus other details from your city location.

Track the satellite on the map from your city or location and see movement details for azimuth, elevation, latitude, longitude, range, height, and movement on the map or in text.







IsCatalogInMostPopularTable: catalog: 44341, numindb: 45
Update: records affected: 1



GetName: 44341 OTB

Hit Count: updated at: Thu, 09 Apr 2020 08:05:17 GMT